sat.trackr.live / text

‹ back to catalog

SNUGLITE

NORAD 43784 · 2018-099AC

PAYLOAD ACTIVE UNKNOWN

§ Identity

Operator
Country
SKOR
Launch date
2018-12-03
Launch site
AFWTR
Launch vehicle
Mass (kg)
RCS (m²)

External: N2YO · Heavens-Above · Gunter

§ Orbital elements

Epoch: 2026-09-09T16:29:07.917216Z

Period
94.19 min
Inclination
97.3793°
Eccentricity
0.0002747
Mean motion
15.28767470 rev/d
Perigee alt
477.6 km
Apogee alt
481.4 km
Semi-major
6,857.6 km
B*
3.2091e-4
RAAN
306.1947°
Arg perigee
26.7070°
Mean anomaly
333.4311°
Rev number
42,622

§ Raw data

SNUGLITE1 43784U 18099AC  26252.68689719  .00008901  00000+0  32091-3 0  99992 43784  97.3793 306.1947 0002747  26.7070 333.4311 15.28767470426229

JSON: /api/v1/satellites/43784 · /tle

For live sub-satellite position, see the globe view (requires WebGL).

§ Visibility from observer

Set your observer location to see the next 7 days of passes ≥ 10°. The values pass through the URL so the page stays shareable.

No JS? Fill the form by hand. The geolocation button needs JavaScript.

§ Radio — SatNOGS DB

ModeDescriptionDownlinkUplink
GMSK GMSK9k6 TLM 437.275 MHz

1 transmitter · refreshed weekly from db.satnogs.org